Location: Young's Pond
(41.2695°N, 72.7766°W)
Time: 02:49:25
(UTC-04:00)

CZ-4B R/B - Visible Passes

Search period start: 30 May 2016 00:00
Search period end: 09 June 2016 00:00
Orbit: 410 x 502 km, 97.5° (Epoch: 29 May)

Date Brightness Start Highest point End Pass type
(mag) Time Alt. Az. Time Alt. Az. Time Alt. Az.
30 May 3.3 00:44:24 30° NW 00:44:24 30° NW 00:46:33 10° NNW visible
31 May 2.9 00:10:59 38° NNE 00:10:59 38° NNE 00:13:33 10° N visible
31 May 3.6 23:37:34 21° NE 23:37:34 21° NE 23:39:57 10° NNE visible
01 Jun 3.9 01:11:20 18° WNW 01:11:20 18° WNW 01:12:48 10° NW visible
02 Jun 3.0 00:37:54 36° NNW 00:37:54 36° NNW 00:40:18 10° NNW visible
03 Jun 2.9 00:04:28 37° NE 00:04:28 37° NE 00:07:09 10° N visible
03 Jun 3.7 23:31:02 18° ENE 23:31:02 18° ENE 23:33:22 10° NNE visible
04 Jun 3.7 01:04:48 22° WNW 01:04:48 22° WNW 01:06:38 10° NW visible
05 Jun 2.8 00:31:22 43° NNW 00:31:22 43° NNW 00:33:57 10° NNW visible
05 Jun 3.0 23:57:55 34° NE 23:57:55 34° NE 00:00:40 10° N visible
06 Jun 4.3 01:31:41 12° WNW 01:31:41 12° WNW 01:32:13 10° WNW visible
06 Jun 3.9 23:24:28 16° ENE 23:24:28 16° ENE 23:26:40 10° NNE visible
07 Jun 3.4 00:58:14 26° WNW 00:58:14 26° WNW 01:00:21 10° NNW visible
08 Jun 2.6 00:24:47 47° N 00:24:47 47° N 00:27:30 10° N visible
08 Jun 3.1 23:51:19 29° NE 23:51:19 29° NE 23:54:05 10° N visible
